EUTELSAT KONNECT

Last updated on Tue Jul 08 2025 00:02:48 GMT+0000 (Coordinated Universal Time)

1 45027U 20005B 25188.56497828 .00000066 00000+0 00000+0 0 9998 2 45027 0.0632 90.6955 0001374 116.1731 289.5225 1.00270560 20871
UTC large
Height (km)
Speed (km/s)
/
Latitude / Longitude
Inclination (degrees)
Orbital Period (minutes)
Azimuth
Elevation
Range (km)
Doppler Factor

Next 0 passes for location: London (51.5072 / 0.1276)

Sorry there are no passes over London.